Flag for Turkmenistan

Past Weather in Ashgabat, Turkmenistan — Yesterday and Last 2 Weeks

Now
72 °F

Clear.


Feels Like: 76 °F
Forecast: 84 / 54 °F
Wind: 9 mph from Southeast

Location: Ashgabat
Current Time: Sep 24, 2020 at 9:03:56 pm
Latest Report: Sep 24, 2020 at 8:00 pm
Visibility: N/A
Pressure30.01 "Hg
Humidity: 25%
Dew Point: 34 °F
Location of AshgabatLocation

Past Weather in Ashgabat — Graph

°F

Ashgabat Temperature Yesterday

Maximum temperature yesterday: 82 °F (at 3:00 pm)
Minimum temperature yesterday: 55 °F (at 7:00 am)
Average temperature yesterday: 69 °F

High & Low Weather Summary for the Past Weeks

 TemperatureHumidityPressure
High91 °F (Sep 14, 4:00 pm)64% (Sep 21, 2:00 am)30.18 "Hg (Sep 21, 2:00 am)
Low55 °F (Sep 18, 7:00 am)13% (Sep 10, 1:00 pm)29.74 "Hg (Sep 19, 5:00 pm)
Average75 °F33%30.02 "Hg
* Reported Sep 9 8:00 pm — Sep 24 8:00 pm, Ashgabat. Weather by CustomWeather, © 2020

Note: Actual official high and low records may vary slightly from our data, if they occured in-between our weather recording intervals... More about our weather records

Ashgabat Weather History for the Previous 24 Hours

Scroll right to see more
 ConditionsComfort  
Time TempWeatherWind HumidityBarometerVisibility
8:00 pm
Thu, Sep 24
72 °FClear.9 mph25%30.01 "HgN/A
7:00 pm75 °FClear.7 mph22%30.01 "HgN/A
6:00 pm81 °FClear.9 mph18%30.01 "HgN/A
5:00 pm82 °FClear.9 mph17%29.98 "HgN/A
4:00 pm82 °FClear.7 mph17%30.01 "HgN/A
3:00 pm81 °FClear.9 mph18%30.01 "HgN/A
2:00 pm81 °FClear.12 mph18%30.01 "HgN/A
1:00 pm81 °FClear.12 mph17%30.04 "HgN/A
12:00 pm77 °FClear.12 mph22%30.04 "HgN/A
11:00 am73 °FClear.12 mph25%30.07 "HgN/A
10:00 am72 °FClear.9 mph25%30.07 "HgN/A
9:00 am68 °FClear.5 mph38%30.07 "HgN/A
8:00 am59 °FClear.No wind51%30.07 "HgN/A
7:00 am57 °FClear.No wind48%30.04 "HgN/A
6:00 am55 °FClear.2 mph51%30.04 "HgN/A
5:00 am57 °FClear.2 mph48%30.04 "HgN/A
4:00 am55 °FClear.No wind51%30.04 "HgN/A
3:00 am59 °FClear.2 mph48%30.04 "HgN/A
2:00 am59 °FClear.No wind45%30.04 "HgN/A
1:00 am63 °FClear.2 mph39%30.04 "HgN/A
12:00 am63 °FClear.2 mph39%30.04 "HgN/A
11:00 pm
Wed, Sep 23
64 °FClear.5 mph37%30.04 "HgN/A
10:00 pm68 °FClear.2 mph33%30.07 "HgN/A
9:00 pm72 °FClear.7 mph29%30.07 "HgN/A
Weather by CustomWeather, © 2020

See weather overview